Location: Unspecified
(0.0000°N, 0.0000°E)
Time: 18:26:42
(UTC+02:00)

ATLAS V CENTAUR R/B - Visible Passes

Search period start: 26 May 2016 00:00
Search period end: 05 June 2016 00:00
Orbit: 243 x 28665 km, 18.0° (Epoch: 22 May)

Date Brightness Start Highest point End Pass type
(mag) Time Alt. Az. Time Alt. Az. Time Alt. Az.
26 May 7.8 07:01:28 10° W 08:02:31 67° N 14:37:29 10° ESE visible
29 May 8.0 01:29:00 13° E 01:29:00 13° E 01:32:29 10° E visible
30 May 7.4 02:24:25 34° E 02:24:25 34° E 08:44:17 10° E visible
31 May 6.8 03:19:44 62° ENE 03:19:44 62° ENE 10:20:10 10° E visible
01 Jun 6.6 04:14:56 72° NW 04:16:47 75° NNW 11:31:49 10° E visible
01 Jun 5.6 20:16:49 10° WSW 20:21:15 13° SW 20:23:46 10° S visible
02 Jun 7.0 05:10:00 43° WNW 05:22:03 69° N 12:36:25 10° E visible
03 Jun 7.5 06:04:57 20° W 06:36:48 66° N 13:37:41 10° ESE visible
04 Jun 8.0 07:02:01 10° W 13:57:08 85° NNE 14:37:03 10° ESE visible
